timestamp,surface_pressure_avg,surface_temp_avg,battery_voltage,lat,long
2018-10-20 00:00:00+00:00,279.0031,10.5,13.05,47.84626,-54.09684
2018-10-20 00:10:00+00:00,274.7264,10.5,12.97,47.84626,-54.09684
2018-10-20 00:20:00+00:00,276.2214,10.5,13.05,47.84626,-54.09684
2018-10-20 00:30:00+00:00,270.2481,10.4,13.05,47.84626,-54.09684
2018-10-20 00:40:00+00:00,263.2214,10.3,13.05,47.84626,-54.09684
2018-10-20 00:50:00+00:00,261.4331,10.3,13.05,47.84626,-54.09684
2018-10-20 01:00:00+00:00,261.7247,10.3,13.05,47.84626,-54.09684
2018-10-20 01:10:00+00:00,259.3697,10.2,12.97,47.84626,-54.09684
2018-10-20 01:20:00+00:00,257.3498,10.2,13.05,47.84626,-54.09684
2018-10-20 01:30:00+00:00,254.3914,10.2,13.05,47.84626,-54.09684
2018-10-20 01:40:00+00:00,250.3314,10.15,13.05,47.84626,-54.09684
2018-10-20 01:50:00+00:00,247.9014,10.14,13.05,47.84626,-54.09684
2018-10-20 02:00:00+00:00,247.4698,10.16,12.97,47.84626,-54.09684
2018-10-20 02:10:00+00:00,245.2931,10.1,12.97,47.84626,-54.09684
2018-10-20 02:20:00+00:00,242.6047,10.18,13.05,47.84626,-54.09684
2018-10-20 02:30:00+00:00,241.8247,10.2,13.05,47.84626,-54.09684
2018-10-20 02:40:00+00:00,241.1864,10.24,13.05,47.84626,-54.09684
2018-10-20 02:50:00+00:00,241.0081,10.25,13.05,47.84626,-54.09684
2018-10-20 03:00:00+00:00,241.7081,10.22,12.97,47.84626,-54.09684
2018-10-20 03:10:00+00:00,242.7314,10.2,12.89,47.84626,-54.09684
2018-10-20 03:20:00+00:00,242.5114,10.2,12.97,47.84626,-54.09684
2018-10-20 03:30:00+00:00,244.1497,10.2,13.05,47.84626,-54.09684
2018-10-20 03:40:00+00:00,244.5764,10.23,13.05,47.84626,-54.09684
2018-10-20 03:50:00+00:00,244.5331,10.34,13.05,47.84626,-54.09684
2018-10-20 04:00:00+00:00,246.0131,10.42,12.97,47.84626,-54.09684
2018-10-20 04:10:00+00:00,247.3364,10.5,12.89,47.84626,-54.09684
2018-10-20 04:20:00+00:00,247.1231,10.49,12.97,47.84626,-54.09684
2018-10-20 04:30:00+00:00,249.343,10.48,12.97,47.84626,-54.09684
2018-10-20 04:40:00+00:00,252.8247,10.5,13.05,47.84626,-54.09684
2018-10-20 04:50:00+00:00,255.7798,10.5,13.05,47.84626,-54.09684
2018-10-20 05:00:00+00:00,259.3631,10.52,12.97,47.84626,-54.09684
2018-10-20 05:10:00+00:00,264.0231,10.53,12.89,47.84626,-54.09684
2018-10-20 05:20:00+00:00,264.9031,10.5,12.97,47.84626,-54.09684
2018-10-20 05:30:00+00:00,267.433,10.5,12.97,47.84626,-54.09684
2018-10-20 05:40:00+00:00,271.7131,10.56,12.97,47.84626,-54.09684
2018-10-20 05:50:00+00:00,275.2231,10.6,13.05,47.84626,-54.09684
2018-10-20 06:00:00+00:00,276.993,10.6,12.97,47.84626,-54.09684
2018-10-20 06:10:00+00:00,282.8897,10.6,12.89,47.84626,-54.09684
2018-10-20 06:20:00+00:00,285.953,10.56,12.97,47.84626,-54.09684
2018-10-20 06:30:00+00:00,287.798,10.55,12.97,47.84626,-54.09684
2018-10-20 06:40:00+00:00,289.3931,10.58,12.97,47.84626,-54.09684
2018-10-20 06:50:00+00:00,292.2264,10.6,12.97,47.84626,-54.09684
2018-10-20 07:00:00+00:00,290.7831,10.6,12.97,47.84626,-54.09684
2018-10-20 07:10:00+00:00,292.6198,10.6,12.81,47.84626,-54.09684
2018-10-20 07:20:00+00:00,295.993,10.6,12.97,47.84626,-54.09684
2018-10-20 07:30:00+00:00,301.0447,10.6,12.97,47.84626,-54.09684
2018-10-20 07:40:00+00:00,302.2531,10.6,12.97,47.84626,-54.09684
2018-10-20 07:50:00+00:00,303.4414,10.6,12.97,47.84626,-54.09684
2018-10-20 08:00:00+00:00,309.9213,10.6,12.89,47.84626,-54.09684
2018-10-20 08:10:00+00:00,314.188,10.6,12.81,47.84626,-54.09684
2018-10-20 08:20:00+00:00,312.8781,10.6,12.89,47.84626,-54.09684
2018-10-20 08:30:00+00:00,313.468,10.6,12.89,47.84626,-54.09684
2018-10-20 08:40:00+00:00,315.0547,10.6,12.97,47.84626,-54.09684
2018-10-20 08:50:00+00:00,309.2913,10.6,12.97,47.84626,-54.09684
2018-10-20 09:00:00+00:00,304.9763,10.6,12.89,47.84626,-54.09684
2018-10-20 09:10:00+00:00,308.1497,10.6,12.81,47.84626,-54.09684
2018-10-20 09:20:00+00:00,306.818,10.6,12.89,47.84626,-54.09684
2018-10-20 09:30:00+00:00,300.8881,10.6,12.89,47.84626,-54.09684
2018-10-20 09:40:00+00:00,302.6964,10.6,12.89,47.84626,-54.09684
2018-10-20 09:50:00+00:00,306.418,10.6,12.97,47.84626,-54.09684
2018-10-20 10:00:00+00:00,300.1914,10.6,12.89,47.84626,-54.09684
2018-10-20 10:10:00+00:00,289.3614,10.6,12.81,47.84626,-54.09684
2018-10-20 10:20:00+00:00,288.0397,10.47,12.89,47.84626,-54.09684
2018-10-20 10:30:00+00:00,290.7264,10.1,12.89,47.84626,-54.09684
2018-10-20 10:40:00+00:00,287.2931,10.0,12.89,47.84626,-54.09684
2018-10-20 10:50:00+00:00,279.4197,10.0,12.97,47.84626,-54.09684
2018-10-20 11:00:00+00:00,276.7781,10.18,12.89,47.84626,-54.09684
2018-10-20 11:10:00+00:00,273.3197,10.39,12.89,47.84626,-54.09684
2018-10-20 11:20:00+00:00,266.8014,10.49,13.29,47.84626,-54.09684
2018-10-20 11:30:00+00:00,263.5914,10.5,13.44,47.84626,-54.09684
2018-10-20 11:40:00+00:00,263.6797,10.5,13.44,47.84626,-54.09684
2018-10-20 11:50:00+00:00,258.6581,10.5,13.53,47.84626,-54.09684
2018-10-20 12:00:00+00:00,250.3398,10.5,13.6,47.84626,-54.09684
2018-10-20 12:10:00+00:00,249.5531,10.5,13.53,47.84626,-54.09684
2018-10-20 12:20:00+00:00,248.1781,10.5,13.68,47.84626,-54.09684
2018-10-20 12:30:00+00:00,247.7364,10.55,13.68,47.84626,-54.09684
2018-10-20 12:40:00+00:00,245.0198,10.59,13.68,47.84626,-54.09684
2018-10-20 12:50:00+00:00,240.9231,10.6,13.92,47.84626,-54.09684
2018-10-20 13:00:00+00:00,235.1281,10.6,14.16,47.84626,-54.09684
2018-10-20 13:10:00+00:00,236.8814,10.6,14.0,47.84626,-54.09684
2018-10-20 13:20:00+00:00,234.4847,10.59,14.0,47.84626,-54.09684
2018-10-20 13:30:00+00:00,229.9197,10.59,13.92,47.84626,-54.09684
2018-10-20 13:40:00+00:00,228.9597,10.59,13.84,47.84626,-54.09684
2018-10-20 13:50:00+00:00,225.6114,10.49,13.84,47.84626,-54.09684
2018-10-20 14:00:00+00:00,221.5081,10.4,13.84,47.84626,-54.09684
2018-10-20 14:10:00+00:00,219.4364,10.4,14.0,47.84626,-54.09684
2018-10-20 14:20:00+00:00,218.6731,10.36,14.08,47.84626,-54.09684
2018-10-20 14:30:00+00:00,216.9381,10.4,14.08,47.84626,-54.09684
2018-10-20 14:40:00+00:00,218.5498,10.4,14.16,47.84626,-54.09684
2018-10-20 14:50:00+00:00,215.4615,10.38,14.56,47.84626,-54.09684
2018-10-20 15:00:00+00:00,214.1615,10.37,14.56,47.84626,-54.09684
2018-10-20 15:10:00+00:00,211.4515,10.4,14.4,47.84626,-54.09684
2018-10-20 15:20:00+00:00,216.7397,10.4,14.48,47.84626,-54.09684
2018-10-20 15:30:00+00:00,223.6647,10.4,14.56,47.84626,-54.09684
2018-10-20 15:40:00+00:00,227.7164,10.3,14.56,47.84626,-54.09684
2018-10-20 15:50:00+00:00,228.4231,10.21,14.56,47.84626,-54.09684
2018-10-20 16:00:00+00:00,229.0564,10.2,14.48,47.84626,-54.09684
2018-10-20 16:20:00+00:00,230.0464,10.2,14.56,47.84626,-54.09684
2018-10-20 16:30:00+00:00,237.0298,10.19,14.56,47.84626,-54.09684
2018-10-20 16:40:00+00:00,245.6381,10.19,14.56,47.84626,-54.09684
2018-10-20 16:50:00+00:00,250.5748,10.19,14.56,47.84626,-54.09684
2018-10-20 17:00:00+00:00,252.8997,10.16,14.32,47.84626,-54.09684
2018-10-20 17:10:00+00:00,256.3497,10.1,14.08,47.84626,-54.09684
2018-10-20 17:20:00+00:00,264.4881,10.1,14.08,47.84626,-54.09684
2018-10-20 17:30:00+00:00,268.8064,10.1,14.0,47.84626,-54.09684
2018-10-20 17:40:00+00:00,268.0764,10.1,14.0,47.84626,-54.09684
2018-10-20 17:50:00+00:00,273.3881,10.1,13.92,47.84626,-54.09684
2018-10-20 18:00:00+00:00,282.5697,10.1,13.84,47.84626,-54.09684
2018-10-20 18:10:00+00:00,285.3463,10.1,13.76,47.84626,-54.09684
2018-10-20 18:20:00+00:00,289.5297,10.1,13.76,47.84626,-54.09684
2018-10-20 18:30:00+00:00,297.6547,10.1,13.84,47.84626,-54.09684
2018-10-20 18:40:00+00:00,299.1347,10.04,13.84,47.84626,-54.09684
2018-10-20 18:50:00+00:00,298.0413,10.0,13.92,47.84626,-54.09684
2018-10-20 19:00:00+00:00,305.543,10.0,13.92,47.84626,-54.09684
2018-10-20 19:10:00+00:00,311.753,10.0,13.76,47.84626,-54.09684
2018-10-20 19:20:00+00:00,314.1379,10.0,13.76,47.84626,-54.09684
2018-10-20 19:30:00+00:00,317.8247,10.0,13.68,47.84626,-54.09684
2018-10-20 19:40:00+00:00,327.093,10.0,13.68,47.84626,-54.09684
2018-10-20 19:50:00+00:00,334.5897,10.0,13.68,47.84626,-54.09684
2018-10-20 20:00:00+00:00,333.6313,10.0,13.53,47.84626,-54.09684
2018-10-20 20:10:00+00:00,336.7064,10.0,13.37,47.84626,-54.09684
2018-10-20 20:20:00+00:00,346.5679,10.0,13.37,47.84626,-54.09684
2018-10-20 20:30:00+00:00,346.0613,10.0,13.29,47.84626,-54.09684
2018-10-20 20:40:00+00:00,342.7064,10.01,13.29,47.84626,-54.09684
2018-10-20 20:50:00+00:00,345.4896,10.0,13.29,47.84626,-54.09684
2018-10-20 21:00:00+00:00,345.9163,10.0,13.21,47.84626,-54.09684
2018-10-20 21:10:00+00:00,346.7596,10.0,13.05,47.84626,-54.09684
2018-10-20 21:20:00+00:00,352.6495,10.0,13.13,47.84626,-54.09684
2018-10-20 21:30:00+00:00,351.1762,10.0,13.13,47.84626,-54.09684
2018-10-20 21:40:00+00:00,344.6013,10.0,13.13,47.84626,-54.09684
2018-10-20 21:50:00+00:00,341.9147,9.99,13.21,47.84626,-54.09684
2018-10-20 22:00:00+00:00,339.9147,9.98,13.13,47.84626,-54.09684
2018-10-20 22:10:00+00:00,334.573,9.96,13.05,47.84626,-54.09684
2018-10-20 22:20:00+00:00,330.423,9.93,13.05,47.84626,-54.09684
2018-10-20 22:30:00+00:00,328.6263,9.92,13.13,47.84626,-54.09684
2018-10-20 22:40:00+00:00,324.7313,9.9,13.13,47.84626,-54.09684
2018-10-20 22:50:00+00:00,313.2913,9.9,13.13,47.84626,-54.09684
2018-10-20 23:00:00+00:00,308.8929,9.9,13.05,47.84626,-54.09684
2018-10-20 23:10:00+00:00,310.9496,9.9,12.97,47.84626,-54.09684
2018-10-20 23:20:00+00:00,305.6813,9.93,13.05,47.84626,-54.09684
2018-10-20 23:30:00+00:00,296.6014,9.95,13.05,47.84626,-54.09684
2018-10-20 23:40:00+00:00,294.2864,9.97,13.13,47.84626,-54.09684
2018-10-20 23:50:00+00:00,291.023,9.97,13.13,47.84626,-54.09684
